Home   Weather   Melbourne Bluff   Past weeks
Flag for Australia

Past Weather in Melbourne Bluff, Heard and McDonald Islands, Australia — Yesterday and Last 2 Weeks

Now
88 °F

Sunny.


Feels Like: 84 °F
Forecast: 73 / 61 °F
Wind: 18 mph from Northeast

Location: Belmont Perth Airport

Current Time: Oct 19, 2019 at 12:14:05 pm

Latest Report: Oct 19, 2019 at 11:30 am


Visibility: 10 mi

Pressure: 29.92 "Hg

Humidity: 21%

Dew Point: 43 °F

Location of Melbourne BluffLocation

Past Weather in Melbourne Bluff — Graph

°F

Melbourne Bluff Temperature Yesterday

Maximum temperature yesterday: 79 °F (at 12:30 pm)
Minimum temperature yesterday: 52 °F (at 12:00 am)
Average temperature yesterday: 65 °F

High & Low Weather Summary for the Past Weeks

 TemperatureHumidityPressure
High88 °F (Oct 8, 12:00 pm)100% (Oct 9, 2:00 am)30.27 "Hg (Oct 9, 2:00 am)
Low41 °F (Oct 15, 3:00 am)22% (Oct 8, 12:00 pm)29.59 "Hg (Oct 4, 12:00 pm)
Average62 °F65%30.09 "Hg
* Reported Oct 4 10:00 am — Oct 19 10:30 am, Melbourne Bluff. Weather by CustomWeather, © 2019

Note: Actual official high and low records may vary slightly from our data, if they occured in-between our weather recording intervals... More about our weather records

Advertising

Melbourne Bluff Weather History for the Previous 24 Hours

Scroll right to see more
 ConditionsComfort  
Time TempWeatherWind HumidityBarometerVisibility
10:30 am
Sat, Oct 19
86 °FSunny.12 mph25%29.92 "Hg10 mi
10:00 am84 °FSunny.15 mph25%29.95 "Hg10 mi
9:30 am84 °FSunny.18 mph27%29.95 "Hg10 mi
9:00 am81 °FSunny.17 mph30%29.95 "Hg10 mi
8:30 am79 °FSunny.15 mph32%29.98 "Hg10 mi
8:00 am77 °FSunny.17 mph36%30.01 "Hg10 mi
7:30 am75 °FSunny.17 mph36%30.01 "Hg10 mi
7:00 am72 °FSunny.17 mph41%30.01 "Hg10 mi
6:35 am70 °FSunny.17 mph43%30.04 "Hg10 mi
6:00 am68 °FSunny.20 mph46%30.04 "Hg10 mi
5:57 am66 °FSunny.21 mph49%30.04 "Hg10 mi
5:00 am61 °FSunny.21 mph55%30.07 "Hg10 mi
4:30 am59 °FSunny.17 mph59%30.07 "Hg10 mi
4:00 am57 °FSunny.17 mph59%30.07 "Hg10 mi
3:39 am55 °FSunny.18 mph63%30.07 "Hg10 mi
3:30 am55 °FSunny.18 mph63%30.07 "Hg10 mi
3:00 am54 °FSunny.17 mph67%30.07 "Hg10 mi
2:30 am54 °FClear.15 mph67%30.07 "Hg10 mi
2:00 am54 °FClear.18 mph67%30.07 "Hg10 mi
1:30 am55 °FClear.15 mph63%30.04 "Hg10 mi
1:00 am55 °FClear.13 mph63%30.07 "Hg10 mi
12:30 am55 °FPassing clouds.9 mph63%30.07 "HgN/A
12:00 am55 °FClear.13 mph63%30.04 "Hg10 mi
11:30 pm
Fri, Oct 18
57 °FClear.18 mph59%30.04 "Hg10 mi
11:00 pm57 °FClear.15 mph59%30.04 "Hg10 mi
10:30 pm59 °FClear.26 mph55%30.04 "Hg10 mi
10:09 pm59 °FClear.25 mph55%30.04 "Hg10 mi
9:30 pm61 °FClear.26 mph52%30.04 "Hg10 mi
9:00 pm63 °FClear.22 mph45%30.04 "Hg10 mi
8:37 pm63 °FClear.17 mph42%30.04 "Hg10 mi
8:00 pm64 °FClear.15 mph37%30.07 "Hg10 mi
7:30 pm63 °FClear.13 mph37%30.07 "Hg10 mi
7:00 pm61 °FClear.13 mph42%30.07 "Hg10 mi
6:30 pm63 °FClear.13 mph39%30.07 "Hg10 mi
6:00 pm63 °FClear.8 mph39%30.09 "Hg10 mi
5:30 pm64 °FClear.8 mph37%30.09 "Hg10 mi
5:00 pm68 °FClear.10 mph33%30.09 "Hg10 mi
4:30 pm68 °FClear.10 mph33%30.07 "Hg10 mi
4:00 pm70 °FClear.10 mph31%30.07 "Hg10 mi
3:30 pm72 °FClear.15 mph29%30.07 "Hg10 mi
3:00 pm73 °FSunny.15 mph29%30.07 "Hg10 mi
2:30 pm77 °FSunny.15 mph26%30.04 "Hg10 mi
2:00 pm77 °FPassing clouds.13 mph28%30.04 "HgN/A
1:30 pm79 °FSunny.12 mph28%30.04 "Hg10 mi
1:00 pm77 °FSunny.10 mph26%30.04 "Hg10 mi
12:30 pm79 °FSunny.13 mph28%30.04 "Hg10 mi
12:00 pm77 °FSunny.13 mph30%30.04 "Hg10 mi
Weather by CustomWeather, © 2019

See weather overview